Regional Weather Roundup
Issued by NWS

Home | Current Version | Previous Version | Text Only | Print | Product List | Glossary On
Versions: 1 2 3 4 5 6 7 8 9 10 11 12 13 14 15 16 17 18 19 20 21 22 23 24 25 26 27 28 29 30 31 32 33 34 35 36 37 38 39 40 41 42 43 44 45 46 47 48 49 50
000
ASUS45 KCYS 180610
RWRWY

WYOMING REGIONAL WEATHER ROUNDUP
NATIONAL WEATHER SERVICE CHEYENNE WY
1200 AM MDT SUN AUG 18 2019

NOTE:  "FAIR" INDICATES FEW OR NO CLOUDS BELOW 12,000 FEET
WITH NO SIGNIFICANT WEATHER AND/OR OBSTRUCTIONS TO VISIBILITY.

WYZ001-180700-
...YELLOWSTONE NATIONAL PARK...

CITY           SKY/WX    TMP DP  RH WIND       PRES   REMARKS
LK YELLOWSTONE   N/A     42  34  73 CALM      30.10R
6HR MIN TEMP:  42; 6HR MAX TEMP:  62;

W YELLOWSTONE  NOT AVBL

$$
WYZ002>013-054>058-071-098>099-180700-
...NORTHERN WYOMING...

CITY           SKY/WX    TMP DP  RH WIND       PRES   REMARKS
JACKSON        CLEAR     51  29  42 E3        30.02S
CODY           CLOUDY    49  45  86 CALM      30.01R
GREYBULL       CLOUDY    58  46  64 W13       29.93R
6HR MIN TEMP:  58; 6HR MAX TEMP:  70;

WORLAND        MOCLDY    52  47  83 E5        29.95R
6HR MIN TEMP:  52; 6HR MAX TEMP:  74;

SHERIDAN       MOCLDY    52  48  86 SW3       29.96F
6HR MIN TEMP:  51; 6HR MAX TEMP:  57;

BUFFALO        CLOUDY    52  49  89 S6        30.03S
6HR MIN TEMP:  51; 6HR MAX TEMP:  54; 6HR PCP: TRACE;

GILLETTE       PTCLDY    51  49  92 S8        30.00S
6HR MIN TEMP:  51; 6HR MAX TEMP:  56;

HULETT         FAIR      50  48  93 SW6       29.99S
NEWCASTLE      CLOUDY    54  48  82 NW13      29.99R

$$
WYZ014>020-022>026-101>103-180700-
...CENTRAL WYOMING...

CITY           SKY/WX    TMP DP  RH WIND       PRES   REMARKS
BIG PINEY      CLEAR     50  20  30 E3        30.09S
6HR MIN TEMP:  48; 6HR MAX TEMP:  74;

PINEDALE       CLEAR     45  28  53 NW5       30.11S
DUBOIS         FAIR      52  23  32 W7        30.06S
LANDER         CLEAR     55  42  61 W8        29.99S
6HR MIN TEMP:  55; 6HR MAX TEMP:  79;

RIVERTON       CLEAR     55  48  77 E12       29.97S
6HR MIN TEMP:  55; 6HR MAX TEMP:  83;

CASPER         CLOUDY    57  48  72 NE13      30.02S
6HR MIN TEMP:  56; 6HR MAX TEMP:  73;

DOUGLAS        CLOUDY    57  50  77 CALM      30.02F
6HR MIN TEMP:  55; 6HR MAX TEMP:  75;


$$
WYZ021-027>030-104>119-180700-
...SOUTHERN WYOMING...

CITY           SKY/WX    TMP DP  RH WIND       PRES   REMARKS
EVANSTON       CLEAR     60  29  30 S6        30.10S
6HR MIN TEMP:  59; 6HR MAX TEMP:  76;

KEMMERER       PTCLDY    57  23  26 CALM      30.12S
FORT BRIDGER   NOT AVBL
ROCK SPRINGS   CLEAR     58  26  29 S8        30.08R
6HR MIN TEMP:  58; 6HR MAX TEMP:  76;

DIXON          FAIR      47  35  63 E12G18    30.11R
RAWLINS        PTCLDY    58  20  22 CALM      30.05S
6HR MIN TEMP:  58; 6HR MAX TEMP:  78;

SARATOGA       FAIR      57  28  33 S13       30.09S
LARAMIE        CLEAR     51  33  50 W10       30.09S
6HR MIN TEMP:  51; 6HR MAX TEMP:  69;

CHEYENNE       CLEAR     60  51  72 N7        30.02F
6HR MIN TEMP:  60; 6HR MAX TEMP:  77;

TORRINGTON     CLOUDY    61  55  81 N13       29.97R
6HR MIN TEMP:  61; 6HR MAX TEMP:  88;

PINE BLUFFS    CLOUDY    59  59 100 N5        29.97F

$$



USA.gov is the U.S. government's official web portal to all federal, state and local government web resources and services.